FW7176 Weather Reports


time (UTC)temp
F
wind
direction
speed
knots
gust
knots
rain 1hr
in
rain 24hr
in
rain mn
in
humidity
%
barometer
mb
20260506221534 71 209 2.6 9.6 0.00 0.00 0.00 62 1019.5
20260506220037 71 261 1.7 7.0 0.00 0.00 0.00 62 1019.6
20260506214534 71 236 1.7 12.2 0.00 0.00 0.00 61 1019.7
20260506213043 71 219 0.9 9.6 0.00 0.00 0.00 61 1019.8
20260506211532 71 293 2.6 10.4 0.00 0.00 0.00 61 1019.8
20260506210039 73 313 0.9 4.3 0.00 0.00 0.00 59 1019.8
20260506204534 71 315 1.7 9.6 0.00 0.00 0.00 62 1019.9
20260506203034 71 205 0.9 11.3 0.00 0.00 0.00 63 1020.0
20260506201532 69 0 0.9 8.7 0.00 0.00 0.00 65 1020.1
20260506200033 70 244 3.5 10.4 0.00 0.00 0.00 62 1020.1
20260506194539 70 265 3.5 8.7 0.00 0.00 0.00 61 1020.2
20260506193035 69 286 4.3 9.6 0.00 0.00 0.00 62 1020.2
20260506191536 69 238 1.7 9.6 0.00 0.00 0.00 64 1020.3
20260506190037 68 34 0.9 9.6 0.00 0.00 0.00 67 1020.3
20260506184535 67 248 1.7 10.4 0.00 0.00 0.00 68 1020.3
20260506183035 67 234 4.3 10.4 0.00 0.00 0.00 68 1020.4
20260506181536 67 180 1.7 12.2 0.00 0.00 0.00 69 1020.3
20260506180042 67 192 3.5 8.7 0.00 0.00 0.00 67 1020.5
20260506174535 67 227 3.5 8.7 0.00 0.00 0.00 68 1020.6
20260506173036 67 298 2.6 8.7 0.00 0.00 0.00 68 1020.5
20260506171543 67 212 4.3 8.7 0.00 0.00 0.00 69 1020.5
20260506170039 66 244 1.7 7.8 0.00 0.00 0.00 69 1020.6
20260506164535 65 233 1.7 7.0 0.00 0.00 0.00 71 1020.5
20260506163040 63 230 1.7 6.1 0.00 0.00 0.00 74 1020.5
20260506161532 63 246 1.7 4.3 0.00 0.00 0.00 75 1020.7
20260506160032 61 221 0.9 6.1 0.00 0.00 0.00 79 1020.7
20260506154536 58 229 0.9 3.5 0.00 0.00 0.00 81 1020.8
20260506153032 56 0 0.0 3.5 0.00 0.00 0.00 86 1021.0
20260506151536 55 0 0.0 0.0 0.00 0.00 0.00 87 1021.1
20260506150033 53 0 0.0 0.0 0.00 0.00 0.00 90 1021.1
20260506144530 52 0 0.0 2.6 0.00 0.00 0.00 93 1021.0
20260506143034 51 0 0.0 0.9 0.00 0.00 0.00 94 1021.1
20260506141533 50 0 0.0 0.0 0.00 0.00 0.00 95 1020.8
20260506140048 48 0 0.0 0.0 0.00 0.00 0.00 94 1020.7
20260506134532 47 0 0.0 0.0 0.00 0.00 0.00 94 1020.5
20260506133044 46 0 0.0 0.9 0.00 0.00 0.00 94 1020.4
20260506131535 46 0 0.0 0.0 0.00 0.00 0.00 93 1020.3
20260506130032 46 0 0.0 0.0 0.00 0.00 0.00 93 1020.1
20260506124536 46 0 0.0 0.0 0.00 0.00 0.00 93 1020.0
20260506123035 46 0 0.0 0.0 0.00 0.00 0.00 93 1020.0
20260506121533 47 0 0.0 0.0 0.00 0.00 0.00 93 1020.0
20260506120046 47 0 0.0 0.0 0.00 0.00 0.00 93 1020.1
20260506114536 47 0 0.0 0.0 0.00 0.00 0.00 92 1020.2
20260506113045 47 0 0.0 0.0 0.00 0.00 0.00 92 1020.1
20260506111533 47 0 0.0 0.0 0.00 0.00 0.00 92 1020.2
20260506110036 48 0 0.0 0.9 0.00 0.00 0.00 92 1020.2
20260506104546 48 0 0.0 0.0 0.00 0.00 0.00 92 1020.1
20260506103037 48 0 0.0 0.0 0.00 0.00 0.00 92 1020.0
20260506101545 48 0 0.0 0.0 0.00 0.00 0.00 92 1020.1
20260506100035 48 0 0.0 0.0 0.00 0.00 0.00 92 1020.0
20260506094534 49 0 0.0 0.0 0.00 0.00 0.00 92 1020.2
20260506093032 49 0 0.0 0.0 0.00 0.00 0.00 91 1020.1
20260506091537 50 0 0.0 0.0 0.00 0.00 0.00 91 1020.2
20260506090036 50 0 0.0 0.9 0.00 0.00 0.00 92 1020.3
20260506084540 50 0 0.0 0.0 0.00 0.00 0.00 90 1020.3
20260506083034 50 0 0.0 0.0 0.00 0.00 0.00 91 1020.4
20260506081536 51 0 0.0 0.0 0.00 0.00 0.00 90 1020.5
20260506073037 52 0 0.0 2.6 0.00 0.00 0.00 90 1020.4
20260506071533 52 0 0.0 2.6 0.00 0.00 0.00 90 1020.4
20260506061535 53 0 0.0 0.9 0.00 0.00 0.00 89 1019.9
20260506044540 54 0 0.0 1.7 0.00 0.00 0.00 85 1019.3
20260506043037 55 0 0.0 2.6 0.00 0.00 0.00 84 1019.2
20260506041538 55 0 0.0 1.7 0.00 0.00 0.00 84 1019.0
20260506040040 55 0 0.0 3.5 0.00 0.00 0.00 83 1018.9
20260506034535 56 311 0.9 3.5 0.00 0.00 0.00 82 1018.7
20260506033035 56 0 0.0 4.3 0.00 0.00 0.00 81 1018.4
20260506031530 57 327 0.9 7.0 0.00 0.00 0.00 80 1018.4
20260506030036 57 355 1.7 7.8 0.00 0.00 0.00 78 1018.2
20260506024538 58 306 0.0 7.0 0.00 0.00 0.00 76 1017.9
20260506023046 59 5 1.7 8.7 0.00 0.00 0.00 73 1017.8
20260506021535 60 291 0.0 3.5 0.00 0.00 0.00 73 1017.5
20260506020034 60 217 1.7 8.7 0.00 0.00 0.00 73 1017.4
20260506014538 60 221 1.7 8.7 0.00 0.00 0.00 73 1017.1
20260506013034 62 259 0.9 8.7 0.00 0.00 0.00 72 1017.0
20260506011535 62 312 0.0 10.4 0.00 0.00 0.00 71 1017.0
20260506010045 64 235 1.7 12.2 0.00 0.00 0.00 68 1017.1
20260506004541 65 192 1.7 10.4 0.00 0.00 0.00 67 1017.1
20260506003035 64 220 2.6 10.4 0.00 0.00 0.00 69 1017.0
20260506001542 64 268 2.6 9.6 0.00 0.00 0.00 68 1017.0
20260506000034 64 259 3.5 9.6 0.00 0.00 0.00 68 1016.9
20260505234555 64 276 3.5 11.3 0.00 0.00 0.00 68 1017.0
20260505233039 64 188 1.7 10.4 0.00 0.00 0.00 68 1017.1
20260505231536 66 266 2.6 8.7 0.00 0.00 0.00 63 1017.0
20260505230034 68 150 1.7 9.6 0.00 0.00 0.00 61 1017.2
20260505224536 66 284 1.7 10.4 0.00 0.00 0.00 65 1017.2
20260505223034 66 268 3.5 10.4 0.00 0.00 0.00 64 1017.3